Location: Göttingen
(51.5413°N, 9.9158°E)
Time: 02:46:48
(UTC+02:00)

Envisat - Pass Details

Date: 31 January 2022
Orbit: 764 x 765 km, 98.2° (Epoch: 22 May)

Event Time Altitude Azimuth Distance (km) Brightness Sun altitude
Rises 03:50:32 0° 28° (NNE) 3,243 6.8 -38.5°
Reaches altitude 10° 03:53:51 10° 50° (NE) 2,311 6.1 -38.0°
Maximum altitude 03:56:48 15° 86° (E) 1,955 5.7 -37.6°
Drops below altitude 10° 03:59:45 10° 122° (ESE) 2,302 5.8 -37.1°
Sets 04:03:02 0° 145° (SE) 3,222 6.4 -36.7°
